Regional Weather Roundup
Issued by NWS

Home | Current Version | Previous Version | Text Only | Print | Product List | Glossary Off
Versions: 1 2 3 4 5 6 7 8 9 10 11 12 13 14 15 16 17 18 19 20 21 22 23 24 25 26 27 28 29 30 31 32 33 34 35 36 37 38 39 40 41 42 43 44 45 46 47 48 49 50

000
ASUS43 KLSX 162310
RWRMO

WEATHER SUMMARY FOR MISSOURI
NATIONAL WEATHER SERVICE SPRINGFIELD MO
500 PM CST MON JAN 16 2017

NOTE: "FAIR" INDICATES FEW OR NO CLOUDS BELOW 12,000 FEET WITH NO
       SIGNIFICANT WEATHER AND/OR OBSTRUCTIONS TO VISIBILITY.
       CURRENT SKY AND/OR WEATHER CONDITIONS ARE NOT AVAILABLE FOR
       CHILLICOTHE AND FARMINGTON.

MOZ001>031-035>038-043-044-053-054-170000-
...NORTHERN AND WESTERN MISSOURI...

CITY           SKY/WX    TMP DP  RH WIND       PRES   REMARKS
KANSAS CTY INT LGT RAIN  45  45 100 SW13      29.84R
KANSAS C DTWN  LGT RAIN  47  44  90 SW8       29.85R
LEE`S SUMMIT   LGT RAIN  47  32  56 SW10      29.85R
ST JOSEPH      LGT RAIN  41  41 100 CALM      29.84R VSB 1/2
CHILLICOTHE      N/A     45  45 100 CALM      29.84F
KIRKSVILLE     FOG       41  41 100 E5        29.86F VSB<1/4

$$
MOZ066>068-077>081-088>096-101>105-170000-
...SOUTHWEST MISSOURI...

CITY           SKY/WX    TMP DP  RH WIND       PRES   REMARKS
SPRINGFIELD    PTCLDY    59  54  83 S9        29.85R
JOPLIN         MOCLDY    51  46  83 SW10      29.90R
BRANSON        PTCLDY    61  54  77 SW8G16    29.89R

$$
MOZ032>034-039>042-045>050-055>058-069>072-170000-
...CENTRAL MISSOURI...

CITY           SKY/WX    TMP DP  RH WIND       PRES   REMARKS
COLUMBIA       MOCLDY    54  53  97 SE9       29.86S FOG
JEFFERSON CITY CLOUDY    57  54  89 SE8       29.87S
ROLLA          CLOUDY    55  54  96 S9        29.88S
SEDALIA        LGT RAIN  58  52  80 W9        29.84S
WHITEMAN AFB   DRIZZLE   55  55 100 SW6       29.82S
WARRENSBURG    LGT RAIN  52  48  87 SW6       29.83S
OSAGE BEACH    MOCLDY    57  54  89 S7        29.86F

$$
MOZ051-052-059>065-170000-
...EAST CENTRAL MISSOURI...

CITY           SKY/WX    TMP DP  RH WIND       PRES   REMARKS
ST LOUIS INTL  LGT RAIN  55  52  89 SE10      29.91S FOG
SPIRIT OF STL  CLOUDY    55  54  96 CALM      29.91S FOG
ST CHARLES     CLOUDY    53  53 100 S6        29.92R FOG

$$
MOZ072>076-082>087-097>100-106>115-170000-
...SOUTH CENTRAL AND SOUTHEAST MISSOURI...

CITY           SKY/WX    TMP DP  RH WIND       PRES   REMARKS
CAPE GIRARDEAU HVY RAIN  60  57  89 SE12      29.95F FOG
FARMINGTON     LGT RAIN  55  55 100 S6        29.93F FOG
POPLAR BLUFF   LGT RAIN  60  59  96 S14       29.93F
WEST PLAINS    CLOUDY    57  57 100 S9        29.90F FOG

$$




USA.gov is the U.S. government's official web portal to all federal, state and local government web resources and services.